Main page
METAR-TAF:

METAR-TAF

Airports :

Kinloss, Scotland

RAF Kinloss

latitude: 57-39N, longitude: 003-34W, elevation: 7 m

Current weather observation

The report was made 52 minutes ago, at 01:50 UTC
Wind 10 kt from the North
Temperature 13°C
Humidity 88%
Pressure 1018 hPa
Visibility 10 km or more

METAR: EGQK 240150Z AUTO 36010KT 9999 FEW006/// BKN018/// 13/11 Q1018

Time: 03:42 (02:42 UTC)


TAF: missing

Weather observations and forecasts of more than 4000 airports (METAR and TAF reports).

The available stations are represented by yellow and red dots on the map.

Hover mouse over dot to see the name of the station.

Then click to see weather observations and forecasts.

To change the map : click on the green buttons with a black cross to zoom in, on the green button with a dash to zoom out, or on the green arrows for adjacent maps.


METAR-TAF: